Content
SEND FEEDBACK

Daily
Averages
Monthly
Summary
United States of America

INDEPENDENCE, IOWA


Home > North America > United States > Iowa
Elevation: 280 meters     Latitude: 42 28N     Longitude: 091 54W

WEATHER
 
SELECT A DAY
Number of Records: 202,122;   Date Range: 8/16/02 - 8/12/14
 
SHARE

PRINT THIS DATA

[ ← Previous Day ]
WEATHER ALMANAC - 31 JANUARY, 2013
[ Next Day → ]
[ °F ]   °C
Weather ElementAverageHighLow
Temperature-15.4 °C-10 °C (12:55 am)-19 °C (9:55 pm)
Dewpoint-19.1 °C-13 °C (12:35 am)-23 °C (9:35 pm)
Humidity73.7 %85 % (12:35 am)66 % (9:55 am)
Barometer1015.6 hPa1024.7 hPa (11:15 pm)1007.8 hPa (12:35 am)
Wind Speed30.4 km/h44.4 km/h (3:35 pm)
Wind Gust53.8 km/h (1:55 pm)
Weather ElementAverage
Visibility11.4 km
Wind DirectionWNW (300.9 °)

Weather ElementTotal
Precipitation---
Heating Degree Days32.8 (Base 18.3)
Averaged from 68 records on 31 January, 2013
WEATHER CONDITIONS BREAKOUT
WIND DIRECTION BREAKOUT
WEATHER BY HOUR - 31 JANUARY, 2013
[ °F ]   °C
Local TimeTemperatureDewpointHumidityBarometerVisibilityWind DirectionWind SpeedGust SpeedPrecipitationEventsConditions
12:35 AM-11 °C-13 °C85 %1007.8 hPa11.3 kmWNW (300°)31.5 km/hOvercast
12:55 AM-10 °C-13 °C79 %1007.8 hPa16.1 kmWNW (300°)31.5 km/hOvercast
1:15 AM-11 °C-13 °C85 %1008.1 hPa16.1 kmWNW (300°)29.6 km/hOvercast
1:35 AM-11 °C-14 °C79 %1008.1 hPa8 kmWNW (290°)29.6 km/h44.4 km/hHaze
1:55 AM-12 °C-16 °C73 %1008.8 hPa11.3 kmWNW (300°)37 km/h46.3 km/hScattered Clouds
2:15 AM-12 °C-16 °C73 %1009.1 hPa16.1 kmWNW (290°)25.9 km/h42.6 km/hScattered Clouds
2:35 AM-13 °C-16 °C79 %1009.1 hPa16.1 kmWNW (290°)27.8 km/h40.7 km/hOvercast
2:55 AM-13 °C-16 °C79 %1009.1 hPa11.3 kmWNW (290°)24.1 km/hOvercast
3:15 AM-13 °C-16 °C79 %1009.1 hPa16.1 kmWNW (290°)20.4 km/hOvercast
3:35 AM-13 °C-17 °C73 %1009.1 hPa16.1 kmWNW (300°)27.8 km/hMostly Cloudy
3:55 AM-14 °C-17 °C79 %1009.5 hPa16.1 kmWNW (290°)20.4 km/hScattered Clouds
4:15 AM-14 °C-17 °C79 %1009.5 hPa16.1 kmWNW (290°)25.9 km/hScattered Clouds
4:35 AM-14 °C-17 °C79 %1009.5 hPa16.1 kmWNW (290°)24.1 km/hClear
4:55 AM-14 °C-17 °C79 %1009.8 hPa16.1 kmWNW (290°)25.9 km/hClear
5:15 AM-14 °C-17 °C79 %1009.8 hPa16.1 kmWNW (290°)27.8 km/hScattered Clouds
5:35 AM-15 °C-18 °C78 %1010.2 hPa16.1 kmWNW (300°)29.6 km/h38.9 km/hScattered Clouds
5:55 AM-15 °C-18 °C78 %1010.5 hPa16.1 kmWNW (300°)27.8 km/hScattered Clouds
6:15 AM-15 °C-18 °C78 %1010.8 hPa16.1 kmWNW (300°)27.8 km/hMostly Cloudy
6:55 AM-15 °C-18 °C78 %1011.2 hPa16.1 kmWNW (300°)33.3 km/hOvercast
7:15 AM-15 °C-18 °C78 %1011.5 hPa16.1 kmWNW (300°)27.8 km/h37 km/hOvercast
7:35 AM-15 °C-18 °C78 %1011.5 hPa16.1 kmWNW (290°)27.8 km/hOvercast
7:55 AM-15 °C-18 °C78 %1011.9 hPa16.1 kmWNW (290°)25.9 km/hOvercast
8:15 AM-15 °C-18 °C78 %1012.2 hPa16.1 kmNW (310°)29.6 km/h37 km/hMostly Cloudy
8:35 AM-15 °C-18 °C78 %1012.5 hPa8 kmWNW (300°)29.6 km/h35.2 km/hHaze
8:55 AM-15 °C-19 °C72 %1012.9 hPa11.3 kmWNW (300°)33.3 km/hMostly Cloudy
9:15 AM-16 °C-20 °C72 %1013.2 hPa8 kmWNW (300°)37 km/h46.3 km/hHaze
9:35 AM-16 °C-20 °C72 %1013.5 hPa8 kmNW (310°)33.3 km/h42.6 km/hHaze
9:55 AM-15 °C-20 °C66 %1013.9 hPa11.3 kmWNW (300°)37 km/h44.4 km/hOvercast
10:15 AM-16 °C-20 °C72 %1014.6 hPa6.4 kmWNW (300°)37 km/hHaze
10:35 AM-15 °C-20 °C66 %1014.9 hPa4 kmNW (310°)35.2 km/h50.1 km/hHaze
10:55 AM-15 °C-20 °C66 %1014.9 hPa4.8 kmWNW (300°)38.9 km/h48.1 km/hHaze
11:15 AM-15 °C-19 °C72 %1015.2 hPa8 kmWNW (300°)37 km/hHaze
11:35 AM-15 °C-20 °C66 %1015.6 hPa6.4 kmNW (310°)29.6 km/h44.4 km/hHaze
11:55 AM-15 °C-20 °C66 %1015.9 hPa6.4 kmNW (310°)27.8 km/h44.4 km/hHaze
12:15 PM-15 °C-19 °C72 %1015.9 hPa4.8 kmWNW (300°)35.2 km/hHaze
12:35 PM-14 °C-18 °C72 %1016.3 hPa4.8 kmWNW (290°)33.3 km/hHaze
12:55 PM-14 °C-18 °C72 %1016.3 hPa8 kmWNW (300°)37 km/h44.4 km/hHaze
1:15 PM-15 °C-20 °C66 %1016.3 hPa6.4 kmWNW (300°)42.6 km/h50.1 km/hHaze
1:35 PM-15 °C-19 °C72 %1016.6 hPa6.4 kmWNW (300°)37 km/hHaze
1:55 PM-15 °C-18 °C78 %1016.6 hPa3.2 kmWNW (300°)37 km/h53.8 km/hHaze
2:15 PM-15 °C-19 °C72 %1016.9 hPa4 kmWNW (300°)37 km/h50.1 km/hHaze
2:35 PM-15 °C-19 °C72 %1017.3 hPa3.2 kmNW (310°)38.9 km/h51.8 km/hHaze
2:55 PM-15 °C-19 °C72 %1017.3 hPa3.2 kmWNW (300°)42.6 km/h53.8 km/hHaze
3:15 PM-15 °C-20 °C66 %1017.6 hPa3.2 kmWNW (300°)40.7 km/h51.8 km/hHaze
3:35 PM-16 °C-20 °C72 %1018.3 hPa4 kmWNW (300°)44.4 km/h51.8 km/hHaze
3:55 PM-16 °C-20 °C72 %1018.3 hPa6.4 kmWNW (290°)38.9 km/h46.3 km/hHaze
4:15 PM-16 °C-20 °C72 %1018.6 hPa6.4 kmWNW (300°)38.9 km/h53.8 km/hHaze
4:35 PM-16 °C-20 °C72 %1019.3 hPa4.8 kmWNW (300°)33.3 km/hHaze
4:55 PM-16 °C-20 °C72 %1019.3 hPa4.8 kmWNW (300°)33.3 km/h44.4 km/hHaze
5:15 PM-17 °C-20 °C78 %1019.6 hPa4.8 kmWNW (300°)35.2 km/h46.3 km/hHaze
5:35 PM-17 °C-20 °C78 %1020.3 hPa6.4 kmWNW (300°)31.5 km/hHaze
5:55 PM-17 °C-20 °C78 %1020.7 hPa6.4 kmWNW (300°)25.9 km/h42.6 km/hHaze
6:15 PM-17 °C-21 °C72 %1021 hPa11.3 kmNW (310°)25.9 km/h40.7 km/hOvercast
6:35 PM-17 °C-22 °C66 %1021.3 hPa16.1 kmNW (310°)27.8 km/h37 km/hMostly Cloudy
6:55 PM-18 °C-22 °C72 %1021.7 hPa16.1 kmNW (310°)22.2 km/h35.2 km/hScattered Clouds
7:15 PM-18 °C-22 °C72 %1021.7 hPa16.1 kmNW (310°)29.6 km/h38.9 km/hScattered Clouds
7:35 PM-18 °C-22 °C72 %1022 hPa16.1 kmNW (310°)24.1 km/h37 km/hScattered Clouds
7:55 PM-18 °C-22 °C72 %1022.4 hPa16.1 kmNW (310°)24.1 km/h33.3 km/hMostly Cloudy
8:15 PM-18 °C-22 °C72 %1022.4 hPa16.1 kmNW (310°)24.1 km/h40.7 km/hOvercast
8:35 PM-18 °C-22 °C72 %1022.7 hPa16.1 kmNW (310°)24.1 km/h31.5 km/hOvercast
8:55 PM-18 °C-22 °C72 %1023 hPa16.1 kmNW (310°)22.2 km/hMostly Cloudy
9:15 PM-18 °C-22 °C72 %1023.4 hPa16.1 kmNW (310°)27.8 km/h37 km/hOvercast
9:35 PM-18 °C-23 °C66 %1023.7 hPa16.1 kmNW (310°)31.5 km/h42.6 km/hMostly Cloudy
9:55 PM-19 °C-23 °C71 %1023.7 hPa16.1 kmNW (310°)16.7 km/h38.9 km/hScattered Clouds
10:15 PM-19 °C-23 °C71 %1024 hPa16.1 kmNW (310°)22.2 km/h31.5 km/hMostly Cloudy
10:35 PM-19 °C-23 °C71 %1024 hPa16.1 kmNW (310°)18.5 km/hOvercast
11:15 PM-19 °C-23 °C71 %1024.7 hPa16.1 kmWNW (300°)24.1 km/hOvercast
11:35 PM-19 °C-23 °C71 %1024.7 hPa16.1 kmWNW (300°)27.8 km/h37 km/hOvercast
Hourly data recorded from KIIB, located 0 kilometers away from Independence, Iowa







STORIES FROM OUR PARTNERS